Time,TemperatureF,DewpointF,PressureIn,WindDirection,WindDirectionDegrees,WindSpeedMPH,WindSpeedGustMPH,Humidity,HourlyPrecipIn,Conditions,Clouds,dailyrainin,SoftwareType,DateUTC
2013-04-30 00:01:00,31.5,14.5,29.58,WNW,303,6.3,10.1,49,0.00,,---,0.00,VWS V14.01,2013-04-30 06:01:00,
2013-04-30 00:06:00,31.5,14.5,29.58,NW,311,4.0,8.1,49,0.00,,---,0.00,VWS V14.01,2013-04-30 06:06:00,
2013-04-30 00:11:00,31.3,13.4,29.58,West,274,11.0,11.0,47,0.00,,---,0.00,VWS V14.01,2013-04-30 06:11:00,
2013-04-30 00:16:00,31.3,12.4,29.58,West,275,6.3,8.7,45,0.00,,---,0.00,VWS V14.01,2013-04-30 06:16:00,
2013-04-30 00:21:00,31.3,11.4,29.58,West,280,6.3,12.8,43,0.00,,---,0.00,VWS V14.01,2013-04-30 06:21:00,
2013-04-30 00:26:00,31.5,11.0,29.58,West,267,16.8,16.8,42,0.00,,---,0.00,VWS V14.01,2013-04-30 06:26:00,
2013-04-30 00:31:00,31.6,10.6,29.58,WNW,293,5.8,12.3,41,0.00,,---,0.00,VWS V14.01,2013-04-30 06:31:00,
2013-04-30 00:36:00,31.5,10.5,29.58,NW,324,7.2,12.8,41,0.00,,---,0.00,VWS V14.01,2013-04-30 06:36:00,
2013-04-30 00:41:00,31.5,10.5,29.58,West,277,5.8,8.1,41,0.00,,---,0.00,VWS V14.01,2013-04-30 06:41:00,
2013-04-30 00:46:00,31.3,10.3,29.58,West,259,13.2,13.2,41,0.00,,---,0.00,VWS V14.01,2013-04-30 06:46:00,
2013-04-30 00:51:00,30.7,10.9,29.58,WNW,284,5.8,14.5,43,0.00,,---,0.00,VWS V14.01,2013-04-30 06:51:00,
2013-04-30 00:56:00,30.6,10.7,29.58,West,275,5.8,10.1,43,0.00,,---,0.00,VWS V14.01,2013-04-30 06:56:00,
2013-04-30 01:01:00,30.6,10.7,29.58,West,272,8.1,8.1,43,0.00,,---,0.00,VWS V14.01,2013-04-30 07:01:00,
2013-04-30 01:06:00,30.7,10.9,29.58,West,281,8.1,10.5,43,0.00,,---,0.00,VWS V14.01,2013-04-30 07:06:00,
2013-04-30 01:11:00,30.7,10.9,29.58,NW,320,8.3,8.3,43,0.00,,---,0.00,VWS V14.01,2013-04-30 07:11:00,
2013-04-30 01:16:00,30.7,10.9,29.58,West,268,5.4,7.2,43,0.00,,---,0.00,VWS V14.01,2013-04-30 07:16:00,
2013-04-30 01:21:00,30.6,10.7,29.58,West,271,10.1,11.0,43,0.00,,---,0.00,VWS V14.01,2013-04-30 07:21:00,
2013-04-30 01:26:00,30.7,10.4,29.58,WNW,298,3.1,3.6,42,0.00,,---,0.00,VWS V14.01,2013-04-30 07:26:00,
2013-04-30 01:31:00,30.6,10.2,29.58,West,260,11.9,12.8,42,0.00,,---,0.00,VWS V14.01,2013-04-30 07:31:00,
2013-04-30 01:36:00,30.7,9.8,29.58,SW,232,2.2,2.7,41,0.00,,---,0.00,VWS V14.01,2013-04-30 07:36:00,
2013-04-30 01:41:00,30.4,10.1,29.58,SSW,211,0.0,0.0,42,0.00,,---,0.00,VWS V14.01,2013-04-30 07:41:00,
2013-04-30 01:46:00,30.2,10.4,29.58,WSW,244,5.4,6.3,43,0.00,,---,0.00,VWS V14.01,2013-04-30 07:46:00,
2013-04-30 01:51:00,29.8,10.6,29.61,West,261,6.3,9.6,44,0.00,,---,0.00,VWS V14.01,2013-04-30 07:51:00,
2013-04-30 01:56:00,29.7,10.4,29.61,South,172,5.4,8.1,44,0.00,,---,0.00,VWS V14.01,2013-04-30 07:56:00,
2013-04-30 02:01:00,29.5,10.3,29.61,SW,221,8.1,10.1,44,0.00,,---,0.00,VWS V14.01,2013-04-30 08:01:00,
2013-04-30 02:06:00,29.5,9.8,29.61,SW,233,5.8,5.8,43,0.00,,---,0.00,VWS V14.01,2013-04-30 08:06:00,
2013-04-30 02:11:00,29.5,9.8,29.61,SSW,196,2.7,3.1,43,0.00,,---,0.00,VWS V14.01,2013-04-30 08:11:00,
2013-04-30 02:16:00,29.5,9.2,29.61,WSW,248,3.6,3.6,42,0.00,,---,0.00,VWS V14.01,2013-04-30 08:16:00,
2013-04-30 02:21:00,29.5,9.2,29.61,WSW,247,2.7,3.1,42,0.00,,---,0.00,VWS V14.01,2013-04-30 08:21:00,
2013-04-30 02:25:00,29.5,8.7,29.61,SW,215,0.0,5.4,41,0.00,,---,0.00,VWS V14.01,2013-04-30 08:25:00,
2013-04-30 02:30:00,29.5,8.7,29.61,SW,236,3.1,7.6,41,0.00,,---,0.00,VWS V14.01,2013-04-30 08:30:00,
2013-04-30 02:35:00,29.5,8.7,29.61,WSW,254,2.7,5.8,41,0.00,,---,0.00,VWS V14.01,2013-04-30 08:35:00,
2013-04-30 02:40:00,29.5,8.7,29.61,West,267,0.0,0.0,41,0.00,,---,0.00,VWS V14.01,2013-04-30 08:40:00,
2013-04-30 02:45:00,29.3,8.5,29.61,West,263,3.6,3.6,41,0.00,,---,0.00,VWS V14.01,2013-04-30 08:45:00,
2013-04-30 02:50:00,29.1,8.4,29.61,West,260,0.0,0.0,41,0.00,,---,0.00,VWS V14.01,2013-04-30 08:50:00,
2013-04-30 02:55:00,29.1,8.4,29.61,WNW,297,0.0,0.0,41,0.00,,---,0.00,VWS V14.01,2013-04-30 08:55:00,
2013-04-30 03:00:00,28.9,8.2,29.61,WNW,295,0.0,3.1,41,0.00,,---,0.00,VWS V14.01,2013-04-30 09:00:00,
2013-04-30 03:05:00,28.6,8.4,29.58,NNW,345,0.0,0.0,42,0.00,,---,0.00,VWS V14.01,2013-04-30 09:05:00,
2013-04-30 03:10:00,28.2,8.1,29.58,NNW,331,0.0,3.6,42,0.00,,---,0.00,VWS V14.01,2013-04-30 09:10:00,
2013-04-30 03:15:00,28.0,8.4,29.58,SW,225,4.0,4.0,43,0.00,,---,0.00,VWS V14.01,2013-04-30 09:15:00,
2013-04-30 03:20:00,28.4,8.8,29.61,West,279,5.4,5.8,43,0.00,,---,0.00,VWS V14.01,2013-04-30 09:20:00,
2013-04-30 03:25:00,28.8,9.6,29.61,NW,308,3.6,5.4,44,0.00,,---,0.00,VWS V14.01,2013-04-30 09:25:00,
2013-04-30 03:30:00,28.8,10.6,29.61,West,281,10.1,10.1,46,0.00,,---,0.00,VWS V14.01,2013-04-30 09:30:00,
2013-04-30 03:35:00,28.2,13.3,29.61,WNW,291,8.3,11.0,53,0.00,,---,0.00,VWS V14.01,2013-04-30 09:35:00,
2013-04-30 03:40:00,27.1,14.3,29.61,WNW,299,3.1,5.8,58,0.00,,---,0.00,VWS V14.01,2013-04-30 09:40:00,
2013-04-30 03:45:00,26.8,14.8,29.61,West,274,5.4,5.8,60,0.00,,---,0.00,VWS V14.01,2013-04-30 09:45:00,
2013-04-30 03:50:00,27.0,14.2,29.61,WNW,294,0.0,2.7,58,0.00,,---,0.00,VWS V14.01,2013-04-30 09:50:00,
2013-04-30 03:55:00,27.1,13.1,29.61,ESE,121,3.1,4.9,55,0.00,,---,0.00,VWS V14.01,2013-04-30 09:55:00,
2013-04-30 04:00:00,27.0,13.4,29.61,ESE,106,4.0,5.8,56,0.00,,---,0.00,VWS V14.01,2013-04-30 10:00:00,
2013-04-30 04:05:00,27.0,13.4,29.58,East,100,3.6,4.0,56,0.00,,---,0.00,VWS V14.01,2013-04-30 10:05:00,
2013-04-30 04:10:00,27.0,13.0,29.58,East,96,2.2,4.0,55,0.00,,---,0.00,VWS V14.01,2013-04-30 10:10:00,
2013-04-30 04:15:00,27.1,12.3,29.58,ENE,64,0.0,0.0,53,0.00,,---,0.00,VWS V14.01,2013-04-30 10:15:00,
2013-04-30 04:20:00,27.1,12.7,29.61,East,84,0.0,0.0,54,0.00,,---,0.00,VWS V14.01,2013-04-30 10:20:00,
2013-04-30 04:25:00,27.0,13.0,29.61,East,97,2.7,3.1,55,0.00,,---,0.00,VWS V14.01,2013-04-30 10:25:00,
2013-04-30 04:30:00,26.8,12.8,29.61,East,93,0.0,0.0,55,0.00,,---,0.00,VWS V14.01,2013-04-30 10:30:00,
2013-04-30 04:35:00,26.4,12.5,29.61,East,88,0.0,0.0,55,0.00,,---,0.00,VWS V14.01,2013-04-30 10:35:00,
2013-04-30 04:40:00,26.1,12.1,29.61,East,88,0.0,0.0,55,0.00,,---,0.00,VWS V14.01,2013-04-30 10:40:00,
2013-04-30 04:45:00,25.9,11.5,29.61,ENE,66,0.0,0.0,54,0.00,,---,0.00,VWS V14.01,2013-04-30 10:45:00,
2013-04-30 04:50:00,26.4,12.0,29.61,NNW,341,0.0,2.2,54,0.00,,---,0.00,VWS V14.01,2013-04-30 10:50:00,
2013-04-30 04:55:00,26.8,11.5,29.61,NNW,329,0.0,0.0,52,0.00,,---,0.00,VWS V14.01,2013-04-30 10:55:00,
2013-04-30 05:00:00,26.8,11.1,29.61,NNW,329,0.0,0.0,51,0.00,,---,0.00,VWS V14.01,2013-04-30 11:00:00,
2013-04-30 05:05:00,26.6,10.5,29.61,NNW,328,0.0,0.0,50,0.00,,---,0.00,VWS V14.01,2013-04-30 11:05:00,
2013-04-30 05:10:00,26.2,10.6,29.61,NNW,333,0.0,0.0,51,0.00,,---,0.00,VWS V14.01,2013-04-30 11:10:00,
2013-04-30 05:15:00,26.1,9.5,29.61,ESE,104,0.0,0.0,49,0.00,,---,0.00,VWS V14.01,2013-04-30 11:15:00,
2013-04-30 05:20:00,25.5,9.0,29.61,ESE,105,0.0,0.0,49,0.00,,---,0.00,VWS V14.01,2013-04-30 11:20:00,
2013-04-30 05:25:00,25.2,9.1,29.61,East,92,0.0,0.0,50,0.00,,---,0.00,VWS V14.01,2013-04-30 11:25:00,
2013-04-30 05:30:00,24.6,9.1,29.61,NE,51,0.0,0.0,51,0.00,,---,0.00,VWS V14.01,2013-04-30 11:30:00,
2013-04-30 05:35:00,24.4,9.4,29.64,NE,51,0.0,0.0,52,0.00,,---,0.00,VWS V14.01,2013-04-30 11:35:00,
2013-04-30 05:40:00,24.6,10.8,29.64,NE,51,0.0,0.0,55,0.00,,---,0.00,VWS V14.01,2013-04-30 11:40:00,
2013-04-30 05:45:00,24.6,10.8,29.64,NE,51,0.0,0.0,55,0.00,,---,0.00,VWS V14.01,2013-04-30 11:45:00,
2013-04-30 05:50:00,24.8,10.5,29.64,NE,52,0.0,0.0,54,0.00,,---,0.00,VWS V14.01,2013-04-30 11:50:00,
2013-04-30 05:55:00,25.0,10.7,29.64,NE,52,0.0,0.0,54,0.00,,---,0.00,VWS V14.01,2013-04-30 11:55:00,
2013-04-30 06:00:00,25.2,10.9,29.64,NE,52,0.0,0.0,54,0.00,,---,0.00,VWS V14.01,2013-04-30 12:00:00,
2013-04-30 06:05:00,25.3,10.2,29.64,WNW,291,0.0,0.0,52,0.00,,---,0.00,VWS V14.01,2013-04-30 12:05:00,
2013-04-30 06:10:00,25.3,9.3,29.64,West,279,0.0,0.0,50,0.00,,---,0.00,VWS V14.01,2013-04-30 12:10:00,
2013-04-30 06:15:00,25.5,8.6,29.64,West,265,0.0,0.0,48,0.00,,---,0.00,VWS V14.01,2013-04-30 12:15:00,
2013-04-30 06:20:00,25.5,7.6,29.61,West,280,2.2,2.7,46,0.00,,---,0.00,VWS V14.01,2013-04-30 12:20:00,
2013-04-30 06:25:00,25.7,8.3,29.61,West,264,4.0,4.0,47,0.00,,---,0.00,VWS V14.01,2013-04-30 12:25:00,
2013-04-30 06:30:00,25.7,7.8,29.61,WSW,246,0.0,2.7,46,0.00,,---,0.00,VWS V14.01,2013-04-30 12:30:00,
2013-04-30 06:35:00,25.5,7.2,29.61,West,268,2.2,2.2,45,0.00,,---,0.00,VWS V14.01,2013-04-30 12:35:00,
2013-04-30 06:40:00,25.5,7.2,29.64,NW,304,0.0,0.0,45,0.00,,---,0.00,VWS V14.01,2013-04-30 12:40:00,
2013-04-30 06:45:00,25.5,7.2,29.64,West,268,0.0,0.0,45,0.00,,---,0.00,VWS V14.01,2013-04-30 12:45:00,
2013-04-30 06:50:00,25.5,7.2,29.64,West,268,0.0,0.0,45,0.00,,---,0.00,VWS V14.01,2013-04-30 12:50:00,
2013-04-30 06:55:00,25.5,7.2,29.64,West,277,0.0,0.0,45,0.00,,---,0.00,VWS V14.01,2013-04-30 12:55:00,
2013-04-30 07:00:00,25.3,7.0,29.64,West,278,0.0,0.0,45,0.00,,---,0.00,VWS V14.01,2013-04-30 13:00:00,
2013-04-30 07:05:00,25.2,6.8,29.64,West,268,0.0,0.0,45,0.00,,---,0.00,VWS V14.01,2013-04-30 13:05:00,
2013-04-30 07:10:00,25.0,6.7,29.64,West,259,0.0,0.0,45,0.00,,---,0.00,VWS V14.01,2013-04-30 13:10:00,
2013-04-30 07:15:00,25.0,6.7,29.64,SW,236,0.0,0.0,45,0.00,,---,0.00,VWS V14.01,2013-04-30 13:15:00,
2013-04-30 07:20:00,25.0,6.7,29.64,WSW,244,2.2,2.2,45,0.00,,---,0.00,VWS V14.01,2013-04-30 13:20:00,
2013-04-30 07:25:00,25.2,6.8,29.64,West,266,0.0,0.0,45,0.00,,---,0.00,VWS V14.01,2013-04-30 13:25:00,
2013-04-30 07:30:00,25.3,7.5,29.64,West,272,0.0,0.0,46,0.00,,---,0.00,VWS V14.01,2013-04-30 13:30:00,
2013-04-30 07:35:00,25.5,7.6,29.64,West,272,0.0,0.0,46,0.00,,---,0.00,VWS V14.01,2013-04-30 13:35:00,
2013-04-30 07:40:00,26.1,8.6,29.64,West,272,0.0,0.0,47,0.00,,---,0.00,VWS V14.01,2013-04-30 13:40:00,
2013-04-30 07:45:00,26.4,8.5,29.64,West,272,0.0,0.0,46,0.00,,---,0.00,VWS V14.01,2013-04-30 13:45:00,
2013-04-30 07:50:00,26.8,8.3,29.67,WSW,240,3.1,3.1,45,0.00,,---,0.00,VWS V14.01,2013-04-30 13:50:00,
2013-04-30 07:55:00,27.3,8.3,29.67,WSW,248,2.2,2.2,44,0.00,,---,0.00,VWS V14.01,2013-04-30 13:55:00,
2013-04-30 08:00:00,27.5,7.9,29.67,WNW,296,4.0,4.0,43,0.00,,---,0.00,VWS V14.01,2013-04-30 14:00:00,
2013-04-30 08:05:00,28.0,7.9,29.67,West,276,4.9,6.3,42,0.00,,---,0.00,VWS V14.01,2013-04-30 14:05:00,
2013-04-30 08:10:00,28.4,7.7,29.67,NW,319,4.9,6.3,41,0.00,,---,0.00,VWS V14.01,2013-04-30 14:10:00,
2013-04-30 08:15:00,28.6,7.9,29.67,SW,229,2.7,3.6,41,0.00,,---,0.00,VWS V14.01,2013-04-30 14:15:00,
2013-04-30 08:20:00,29.1,7.8,29.67,WSW,258,8.3,8.3,40,0.00,,---,0.00,VWS V14.01,2013-04-30 14:20:00,
2013-04-30 08:25:00,29.5,8.1,29.67,NW,312,6.3,6.3,40,0.00,,---,0.00,VWS V14.01,2013-04-30 14:25:00,
2013-04-30 08:30:00,29.7,7.2,29.67,WNW,302,10.1,11.0,38,0.00,,---,0.00,VWS V14.01,2013-04-30 14:30:00,
2013-04-30 08:35:00,29.8,6.8,29.67,WNW,288,7.2,11.0,37,0.00,,---,0.00,VWS V14.01,2013-04-30 14:35:00,
2013-04-30 08:40:00,30.2,7.1,29.67,West,271,5.4,5.4,37,0.00,,---,0.00,VWS V14.01,2013-04-30 14:40:00,
2013-04-30 08:45:00,30.4,6.6,29.67,NW,313,7.6,8.1,36,0.00,,---,0.00,VWS V14.01,2013-04-30 14:45:00,
2013-04-30 08:50:00,30.4,6.0,29.67,WNW,296,6.3,7.6,35,0.00,,---,0.00,VWS V14.01,2013-04-30 14:50:00,
2013-04-30 08:55:00,30.6,5.5,29.67,NW,310,10.1,12.3,34,0.00,,---,0.00,VWS V14.01,2013-04-30 14:55:00,
2013-04-30 09:00:00,30.6,5.5,29.67,West,267,8.7,8.7,34,0.00,,---,0.00,VWS V14.01,2013-04-30 15:00:00,
2013-04-30 09:05:00,30.9,5.9,29.67,NW,320,5.8,8.1,34,0.00,,---,0.00,VWS V14.01,2013-04-30 15:05:00,
2013-04-30 09:10:00,31.1,6.0,29.64,SW,218,9.2,10.1,34,0.00,,---,0.00,VWS V14.01,2013-04-30 15:10:00,
2013-04-30 09:15:00,31.3,6.2,29.64,WNW,294,8.1,9.2,34,0.00,,---,0.00,VWS V14.01,2013-04-30 15:15:00,
2013-04-30 09:20:00,31.5,6.3,29.64,SW,215,5.8,5.8,34,0.00,,---,0.00,VWS V14.01,2013-04-30 15:20:00,
2013-04-30 09:25:00,32.0,6.8,29.64,West,262,6.3,8.3,34,0.00,,---,0.00,VWS V14.01,2013-04-30 15:25:00,
2013-04-30 09:30:00,32.0,6.2,29.64,WSW,246,4.0,8.7,33,0.00,,---,0.00,VWS V14.01,2013-04-30 15:30:00,
2013-04-30 09:35:00,32.0,6.2,29.64,West,271,4.9,6.3,33,0.00,,---,0.00,VWS V14.01,2013-04-30 15:35:00,
2013-04-30 09:40:00,32.4,6.5,29.67,WNW,289,7.6,8.1,33,0.00,,---,0.00,VWS V14.01,2013-04-30 15:40:00,
2013-04-30 09:45:00,32.2,6.3,29.67,West,266,5.4,8.1,33,0.00,,---,0.00,VWS V14.01,2013-04-30 15:45:00,
2013-04-30 09:50:00,32.2,6.3,29.67,SSW,211,8.1,12.8,33,0.00,,---,0.00,VWS V14.01,2013-04-30 15:50:00,
2013-04-30 09:55:00,32.4,6.5,29.67,WNW,292,4.9,4.9,33,0.00,,---,0.00,VWS V14.01,2013-04-30 15:55:00,
2013-04-30 10:00:00,32.5,6.0,29.67,SSW,213,5.8,5.8,32,0.00,,---,0.00,VWS V14.01,2013-04-30 16:00:00,
2013-04-30 10:05:00,32.9,6.3,29.67,WNW,283,8.7,12.8,32,0.00,,---,0.00,VWS V14.01,2013-04-30 16:05:00,
2013-04-30 10:10:00,32.7,6.1,29.67,NW,304,9.2,10.1,32,0.00,,---,0.00,VWS V14.01,2013-04-30 16:10:00,
2013-04-30 10:15:00,32.5,6.0,29.67,WNW,294,3.6,5.8,32,0.00,,---,0.00,VWS V14.01,2013-04-30 16:15:00,
2013-04-30 10:20:00,33.1,6.4,29.67,SSW,208,4.0,8.7,32,0.00,,---,0.00,VWS V14.01,2013-04-30 16:20:00,
2013-04-30 10:25:00,33.3,6.6,29.67,West,259,4.0,4.9,32,0.00,,---,0.00,VWS V14.01,2013-04-30 16:25:00,
2013-04-30 10:30:00,33.6,6.9,29.67,NW,325,3.1,8.3,32,0.00,,---,0.00,VWS V14.01,2013-04-30 16:30:00,
2013-04-30 10:35:00,33.6,6.2,29.67,NW,305,5.8,5.8,31,0.00,,---,0.00,VWS V14.01,2013-04-30 16:35:00,
2013-04-30 10:40:00,34.0,6.5,29.67,NW,313,5.4,6.3,31,0.00,,---,0.00,VWS V14.01,2013-04-30 16:40:00,
2013-04-30 10:45:00,34.0,6.5,29.67,West,270,5.8,7.6,31,0.00,,---,0.00,VWS V14.01,2013-04-30 16:45:00,
2013-04-30 10:50:00,34.2,6.7,29.67,NW,319,10.1,10.1,31,0.00,,---,0.00,VWS V14.01,2013-04-30 16:50:00,
2013-04-30 10:55:00,34.3,6.9,29.67,West,280,7.6,7.6,31,0.00,,---,0.00,VWS V14.01,2013-04-30 16:55:00,
2013-04-30 11:00:00,34.3,6.9,29.67,SSW,213,4.0,8.3,31,0.00,,---,0.00,VWS V14.01,2013-04-30 17:00:00,
2013-04-30 11:05:00,34.3,6.9,29.67,WNW,286,2.2,8.7,31,0.00,,---,0.00,VWS V14.01,2013-04-30 17:05:00,
2013-04-30 11:10:00,35.1,8.9,29.67,WNW,287,8.3,11.0,33,0.00,,---,0.00,VWS V14.01,2013-04-30 17:10:00,
2013-04-30 11:15:00,34.0,7.9,29.67,WNW,282,6.3,8.7,33,0.00,,---,0.00,VWS V14.01,2013-04-30 17:15:00,
2013-04-30 11:20:00,34.5,8.4,29.67,WSW,246,11.0,15.4,33,0.00,,---,0.00,VWS V14.01,2013-04-30 17:20:00,
2013-04-30 11:25:00,34.2,7.4,29.67,SW,219,10.1,10.1,32,0.00,,---,0.00,VWS V14.01,2013-04-30 17:25:00,
2013-04-30 11:30:00,34.3,7.6,29.67,WNW,291,4.0,7.6,32,0.00,,---,0.00,VWS V14.01,2013-04-30 17:30:00,
2013-04-30 11:35:00,35.1,7.5,29.67,WNW,284,3.6,8.1,31,0.00,,---,0.00,VWS V14.01,2013-04-30 17:35:00,
2013-04-30 11:40:00,35.1,7.5,29.67,West,271,3.6,8.3,31,0.00,,---,0.00,VWS V14.01,2013-04-30 17:40:00,
2013-04-30 11:45:00,35.4,7.8,29.67,WNW,296,5.4,10.1,31,0.00,,---,0.00,VWS V14.01,2013-04-30 17:45:00,
2013-04-30 11:50:00,35.4,7.8,29.67,WNW,291,4.9,9.2,31,0.00,,---,0.00,VWS V14.01,2013-04-30 17:50:00,
2013-04-30 11:55:00,35.8,8.1,29.67,WNW,289,10.5,10.5,31,0.00,,---,0.00,VWS V14.01,2013-04-30 17:55:00,
2013-04-30 12:00:00,35.8,7.4,29.67,SW,236,5.4,8.7,30,0.00,,---,0.00,VWS V14.01,2013-04-30 18:00:00,
2013-04-30 12:05:00,36.0,7.6,29.67,South,185,5.4,6.3,30,0.00,,---,0.00,VWS V14.01,2013-04-30 18:05:00,
2013-04-30 12:10:00,36.1,7.7,29.67,SSW,209,3.6,3.6,30,0.00,,---,0.00,VWS V14.01,2013-04-30 18:10:00,
2013-04-30 12:15:00,36.9,8.3,29.67,West,268,3.1,3.1,30,0.00,,---,0.00,VWS V14.01,2013-04-30 18:15:00,
2013-04-30 12:20:00,36.5,8.0,29.67,WNW,302,4.0,4.0,30,0.00,,---,0.00,VWS V14.01,2013-04-30 18:20:00,
2013-04-30 12:25:00,37.2,8.6,29.67,WNW,286,8.1,8.7,30,0.00,,---,0.00,VWS V14.01,2013-04-30 18:25:00,
2013-04-30 12:30:00,36.9,8.3,29.67,WNW,295,9.6,9.6,30,0.00,,---,0.00,VWS V14.01,2013-04-30 18:30:00,
2013-04-30 12:35:00,35.8,7.4,29.67,NW,305,10.5,10.5,30,0.00,,---,0.00,VWS V14.01,2013-04-30 18:35:00,
2013-04-30 12:40:00,35.2,7.7,29.67,NW,318,2.7,8.7,31,0.00,,---,0.00,VWS V14.01,2013-04-30 18:40:00,
2013-04-30 12:45:00,34.9,7.3,29.67,WNW,302,8.1,8.1,31,0.00,,---,0.00,VWS V14.01,2013-04-30 18:45:00,
2013-04-30 12:50:00,34.9,7.3,29.67,WNW,303,8.3,10.5,31,0.00,,---,0.00,VWS V14.01,2013-04-30 18:50:00,
2013-04-30 12:55:00,35.2,7.7,29.67,West,281,7.6,9.6,31,0.00,,---,0.00,VWS V14.01,2013-04-30 18:55:00,
2013-04-30 13:00:00,34.7,7.2,29.67,NW,312,2.2,8.1,31,0.00,,---,0.00,VWS V14.01,2013-04-30 19:00:00,
2013-04-30 13:05:00,34.7,6.4,29.67,WSW,250,5.8,6.7,30,0.00,,---,0.00,VWS V14.01,2013-04-30 19:05:00,
2013-04-30 13:10:00,34.5,6.3,29.67,NW,308,3.1,6.3,30,0.00,,---,0.00,VWS V14.01,2013-04-30 19:10:00,
2013-04-30 13:15:00,34.9,6.6,29.67,NNW,346,0.0,0.0,30,0.00,,---,0.00,VWS V14.01,2013-04-30 19:15:00,
2013-04-30 13:20:00,35.1,6.8,29.67,West,280,3.6,4.0,30,0.00,,---,0.00,VWS V14.01,2013-04-30 19:20:00,
2013-04-30 13:25:00,34.9,6.6,29.67,WSW,244,0.0,3.6,30,0.00,,---,0.00,VWS V14.01,2013-04-30 19:25:00,
2013-04-30 13:30:00,34.7,6.4,29.67,West,273,5.4,8.7,30,0.00,,---,0.00,VWS V14.01,2013-04-30 19:30:00,
2013-04-30 13:35:00,34.7,6.4,29.67,SSW,207,5.4,6.7,30,0.00,,---,0.00,VWS V14.01,2013-04-30 19:35:00,
2013-04-30 13:40:00,34.9,6.6,29.67,West,259,8.1,8.1,30,0.00,,---,0.00,VWS V14.01,2013-04-30 19:40:00,
2013-04-30 13:45:00,34.9,6.6,29.67,WNW,288,3.1,5.4,30,0.00,,---,0.00,VWS V14.01,2013-04-30 19:45:00,
2013-04-30 13:50:00,35.1,6.8,29.67,SW,233,5.4,5.4,30,0.00,,---,0.00,VWS V14.01,2013-04-30 19:50:00,
2013-04-30 13:55:00,35.1,7.5,29.67,WNW,299,3.1,3.1,31,0.00,,---,0.00,VWS V14.01,2013-04-30 19:55:00,
2013-04-30 14:00:00,35.1,6.8,29.67,WNW,294,5.8,8.7,30,0.00,,---,0.00,VWS V14.01,2013-04-30 20:00:00,
2013-04-30 14:05:00,35.1,6.8,29.67,NW,314,3.1,4.0,30,0.00,,---,0.00,VWS V14.01,2013-04-30 20:05:00,
2013-04-30 14:10:00,35.4,7.1,29.70,South,185,3.1,3.6,30,0.00,,---,0.00,VWS V14.01,2013-04-30 20:10:00,
2013-04-30 14:15:00,35.8,7.4,29.70,SSE,155,4.0,6.7,30,0.00,,---,0.00,VWS V14.01,2013-04-30 20:15:00,
2013-04-30 14:20:00,35.1,8.2,29.70,SE,126,7.2,11.0,32,0.00,,---,0.00,VWS V14.01,2013-04-30 20:20:00,
2013-04-30 14:25:00,35.1,8.2,29.70,SE,131,0.0,5.8,32,0.00,,---,0.00,VWS V14.01,2013-04-30 20:25:00,
2013-04-30 14:30:00,35.2,8.4,29.70,West,263,3.6,4.0,32,0.00,,---,0.00,VWS V14.01,2013-04-30 20:30:00,
2013-04-30 14:35:00,35.6,8.7,29.70,NE,55,3.1,3.1,32,0.00,,---,0.00,VWS V14.01,2013-04-30 20:35:00,
2013-04-30 14:40:00,36.1,9.1,29.67,ENE,59,4.0,4.0,32,0.00,,---,0.00,VWS V14.01,2013-04-30 20:40:00,
2013-04-30 14:45:00,36.5,9.5,29.67,ENE,68,2.7,5.4,32,0.00,,---,0.00,VWS V14.01,2013-04-30 20:45:00,
2013-04-30 14:50:00,36.9,9.8,29.67,ENE,59,3.1,3.1,32,0.00,,---,0.00,VWS V14.01,2013-04-30 20:50:00,
2013-04-30 14:55:00,38.3,10.3,29.70,ENE,66,3.1,4.0,31,0.00,,---,0.00,VWS V14.01,2013-04-30 20:55:00,
2013-04-30 15:00:00,38.7,10.6,29.70,NNW,329,0.0,2.7,31,0.00,,---,0.00,VWS V14.01,2013-04-30 21:00:00,
2013-04-30 15:05:00,40.1,11.9,29.70,North,2,0.0,0.0,31,0.00,,---,0.00,VWS V14.01,2013-04-30 21:05:00,
2013-04-30 15:10:00,40.3,11.3,29.70,East,91,4.0,7.6,30,0.00,,---,0.00,VWS V14.01,2013-04-30 21:10:00,
2013-04-30 15:15:00,39.4,12.0,29.70,ENE,57,4.0,10.5,32,0.00,,---,0.00,VWS V14.01,2013-04-30 21:15:00,
2013-04-30 15:20:00,38.8,16.0,29.70,North,0,11.4,11.4,39,0.00,,---,0.00,VWS V14.01,2013-04-30 21:20:00,
2013-04-30 15:25:00,37.0,15.5,29.73,NE,53,12.8,12.8,41,0.00,,---,0.00,VWS V14.01,2013-04-30 21:25:00,
2013-04-30 15:30:00,35.8,15.5,29.73,NNE,25,5.4,12.8,43,0.00,,---,0.00,VWS V14.01,2013-04-30 21:30:00,
2013-04-30 15:35:00,35.2,16.0,29.73,NE,38,10.5,15.4,45,0.00,,---,0.00,VWS V14.01,2013-04-30 21:35:00,
2013-04-30 15:40:00,34.9,17.2,29.73,ENE,71,13.2,15.0,48,0.00,,---,0.00,VWS V14.01,2013-04-30 21:40:00,
2013-04-30 15:45:00,34.3,17.6,29.73,NNW,343,8.3,8.3,50,0.00,,---,0.00,VWS V14.01,2013-04-30 21:45:00,
2013-04-30 15:50:00,33.8,18.0,29.73,North,357,2.7,8.7,52,0.00,,---,0.00,VWS V14.01,2013-04-30 21:50:00,
2013-04-30 15:54:00,33.4,19.0,29.73,NNE,28,4.9,12.8,55,0.00,,---,0.00,VWS V14.01,2013-04-30 21:54:00,
2013-04-30 15:59:00,33.1,18.7,29.73,North,357,6.3,8.3,55,0.00,,---,0.00,VWS V14.01,2013-04-30 21:59:00,
2013-04-30 16:04:00,32.9,19.4,29.73,NE,34,9.2,9.2,57,0.00,,---,0.00,VWS V14.01,2013-04-30 22:04:00,
2013-04-30 16:09:00,32.5,20.2,29.73,NE,47,5.8,10.1,60,0.00,,---,0.00,VWS V14.01,2013-04-30 22:09:00,
2013-04-30 16:14:00,32.7,20.8,29.73,NNE,20,6.3,8.3,61,0.00,,---,0.00,VWS V14.01,2013-04-30 22:14:00,
2013-04-30 16:19:00,33.1,20.3,29.73,NNE,29,8.3,10.1,59,0.00,,---,0.00,VWS V14.01,2013-04-30 22:19:00,
2013-04-30 16:24:00,33.3,20.5,29.76,ENE,65,8.1,8.1,59,0.00,,---,0.00,VWS V14.01,2013-04-30 22:24:00,
2013-04-30 16:29:00,33.3,20.5,29.76,NE,53,8.7,8.7,59,0.00,,---,0.00,VWS V14.01,2013-04-30 22:29:00,
2013-04-30 16:34:00,33.1,20.3,29.76,North,6,4.9,9.6,59,0.00,,---,0.00,VWS V14.01,2013-04-30 22:34:00,
2013-04-30 16:39:00,33.3,20.5,29.76,NE,48,4.0,9.6,59,0.00,,---,0.00,VWS V14.01,2013-04-30 22:39:00,
2013-04-30 16:44:00,33.1,19.9,29.76,NE,36,15.4,15.4,58,0.00,,---,0.00,VWS V14.01,2013-04-30 22:44:00,
2013-04-30 16:49:00,32.5,19.8,29.76,NNW,340,8.3,8.3,59,0.00,,---,0.00,VWS V14.01,2013-04-30 22:49:00,
2013-04-30 16:54:00,31.8,19.5,29.76,NNE,24,5.4,11.0,60,0.00,,---,0.00,VWS V14.01,2013-04-30 22:54:00,
2013-04-30 16:59:00,30.9,19.5,29.76,North,3,5.8,5.8,62,0.00,,---,0.00,VWS V14.01,2013-04-30 22:59:00,
2013-04-30 17:04:00,30.2,20.9,29.76,NNE,16,5.4,7.6,68,0.00,,---,0.00,VWS V14.01,2013-04-30 23:04:00,
2013-04-30 17:09:00,30.0,22.1,29.79,WNW,301,5.4,5.8,72,0.00,,---,0.00,VWS V14.01,2013-04-30 23:09:00,
2013-04-30 17:14:00,30.2,23.2,29.79,North,353,4.0,10.5,75,0.00,,---,0.00,VWS V14.01,2013-04-30 23:14:00,
2013-04-30 17:19:00,30.6,23.9,29.79,North,8,7.6,8.1,76,0.00,,---,0.00,VWS V14.01,2013-04-30 23:19:00,
2013-04-30 17:24:00,30.7,23.8,29.79,NNW,338,3.1,3.6,75,0.00,,---,0.00,VWS V14.01,2013-04-30 23:24:00,
2013-04-30 17:29:00,31.1,24.4,29.79,NNW,330,4.0,5.8,76,0.00,,---,0.00,VWS V14.01,2013-04-30 23:29:00,
2013-04-30 17:34:00,30.9,23.6,29.79,North,353,0.0,5.8,74,0.00,,---,0.00,VWS V14.01,2013-04-30 23:34:00,
2013-04-30 17:39:00,30.7,23.5,29.79,NNE,33,3.6,7.6,74,0.00,,---,0.00,VWS V14.01,2013-04-30 23:39:00,
2013-04-30 17:44:00,30.7,23.8,29.79,NE,43,5.8,7.6,75,0.00,,---,0.00,VWS V14.01,2013-04-30 23:44:00,
2013-04-30 17:49:00,30.7,24.1,29.79,NE,55,4.9,5.8,76,0.00,,---,0.00,VWS V14.01,2013-04-30 23:49:00,
2013-04-30 17:54:00,30.7,24.1,29.79,NE,43,3.1,4.0,76,0.00,,---,0.00,VWS V14.01,2013-04-30 23:54:00,
2013-04-30 17:59:00,30.6,24.2,29.79,NE,54,4.9,7.2,77,0.00,,---,0.00,VWS V14.01,2013-04-30 23:59:00,
2013-04-30 18:04:00,30.2,24.2,29.79,NNE,30,4.0,5.4,78,0.00,,---,0.00,VWS V14.01,2013-05-01 00:04:00,
2013-04-30 18:09:00,30.0,24.0,29.79,NE,37,3.1,4.0,78,0.00,,---,0.00,VWS V14.01,2013-05-01 00:09:00,
2013-04-30 18:14:00,29.8,24.1,29.79,NE,53,4.0,4.9,79,0.00,,---,0.00,VWS V14.01,2013-05-01 00:14:00,
2013-04-30 18:19:00,29.7,24.3,29.79,NNE,28,4.9,5.8,80,0.00,,---,0.00,VWS V14.01,2013-05-01 00:19:00,
2013-04-30 18:24:00,29.1,23.7,29.82,NE,38,5.8,5.8,80,0.00,,---,0.00,VWS V14.01,2013-05-01 00:24:00,
2013-04-30 18:29:00,28.9,23.6,29.82,NE,34,0.0,0.0,80,0.00,,---,0.00,VWS V14.01,2013-05-01 00:29:00,
2013-04-30 18:34:00,28.8,23.7,29.82,NW,324,3.1,3.1,81,0.00,,---,0.00,VWS V14.01,2013-05-01 00:34:00,
2013-04-30 18:39:00,28.6,23.5,29.82,ENE,57,0.0,0.0,81,0.00,,---,0.00,VWS V14.01,2013-05-01 00:39:00,
2013-04-30 18:44:00,28.6,23.8,29.82,NE,56,2.7,3.1,82,0.00,,---,0.00,VWS V14.01,2013-05-01 00:44:00,
2013-04-30 18:49:00,28.6,24.1,29.82,East,79,0.0,0.0,83,0.00,,---,0.00,VWS V14.01,2013-05-01 00:49:00,
2013-04-30 18:54:00,28.6,24.4,29.82,NNE,29,0.0,2.7,84,0.00,,---,0.00,VWS V14.01,2013-05-01 00:54:00,
2013-04-30 18:59:00,28.4,24.5,29.82,NE,35,5.8,5.8,85,0.00,,---,0.00,VWS V14.01,2013-05-01 00:59:00,
2013-04-30 19:04:00,28.2,24.6,29.82,NE,45,4.0,5.8,86,0.00,,---,0.00,VWS V14.01,2013-05-01 01:04:00,
2013-04-30 19:09:00,28.4,24.8,29.82,ENE,57,3.6,4.0,86,0.00,,---,0.00,VWS V14.01,2013-05-01 01:09:00,
2013-04-30 19:14:00,28.4,24.8,29.82,NE,40,3.1,3.1,86,0.00,,---,0.00,VWS V14.01,2013-05-01 01:14:00,
2013-04-30 19:19:00,28.2,24.6,29.82,NE,37,5.4,7.6,86,0.00,,---,0.00,VWS V14.01,2013-05-01 01:19:00,
2013-04-30 19:24:00,28.2,24.6,29.82,ENE,63,2.7,4.9,86,0.00,,---,0.00,VWS V14.01,2013-05-01 01:24:00,
2013-04-30 19:29:00,28.0,24.7,29.82,NE,45,0.0,0.0,87,0.00,,---,0.00,VWS V14.01,2013-05-01 01:29:00,
2013-04-30 19:34:00,28.0,24.7,29.82,North,8,2.7,2.7,87,0.00,,---,0.00,VWS V14.01,2013-05-01 01:34:00,
2013-04-30 19:39:00,28.0,24.7,29.85,NNE,18,3.6,3.6,87,0.00,,---,0.00,VWS V14.01,2013-05-01 01:39:00,
2013-04-30 19:44:00,28.0,24.7,29.85,North,8,3.6,3.6,87,0.00,,---,0.00,VWS V14.01,2013-05-01 01:44:00,
2013-04-30 19:49:00,27.9,24.2,29.85,NE,55,2.7,3.1,86,0.00,,---,0.00,VWS V14.01,2013-05-01 01:49:00,
2013-04-30 19:54:00,27.7,24.0,29.82,NE,52,3.6,3.6,86,0.00,,---,0.00,VWS V14.01,2013-05-01 01:54:00,
2013-04-30 19:59:00,27.3,23.7,29.82,ENE,57,2.7,2.7,86,0.00,,---,0.00,VWS V14.01,2013-05-01 01:59:00,
2013-04-30 20:04:00,27.1,23.8,29.82,ENE,74,0.0,0.0,87,0.00,,---,0.00,VWS V14.01,2013-05-01 02:04:00,
2013-04-30 20:09:00,27.1,24.1,29.85,ESE,104,3.1,4.9,88,0.00,,---,0.00,VWS V14.01,2013-05-01 02:09:00,
2013-04-30 20:14:00,27.0,24.4,29.85,East,96,0.0,4.0,90,0.00,,---,0.00,VWS V14.01,2013-05-01 02:14:00,
2013-04-30 20:19:00,27.0,24.7,29.85,East,98,5.4,5.4,91,0.00,,---,0.00,VWS V14.01,2013-05-01 02:19:00,
2013-04-30 20:24:00,27.0,25.2,29.85,East,93,3.1,3.1,93,0.00,,---,0.00,VWS V14.01,2013-05-01 02:24:00,
2013-04-30 20:29:00,26.8,25.0,29.85,NE,46,3.1,4.5,93,0.00,,---,0.00,VWS V14.01,2013-05-01 02:29:00,
2013-04-30 20:34:00,26.4,24.9,29.85,North,6,3.1,3.6,94,0.00,,---,0.00,VWS V14.01,2013-05-01 02:34:00,
2013-04-30 20:39:00,26.2,24.8,29.85,NE,48,3.1,3.6,94,0.00,,---,0.00,VWS V14.01,2013-05-01 02:39:00,
2013-04-30 20:44:00,26.2,24.8,29.85,ENE,67,2.2,2.2,94,0.00,,---,0.00,VWS V14.01,2013-05-01 02:44:00,
2013-04-30 20:49:00,26.4,25.2,29.85,ESE,104,0.0,0.0,95,0.00,,---,0.00,VWS V14.01,2013-05-01 02:49:00,
2013-04-30 20:54:00,26.4,25.2,29.88,ESE,103,0.0,0.0,95,0.00,,---,0.00,VWS V14.01,2013-05-01 02:54:00,
2013-04-30 20:59:00,26.4,25.4,29.88,ESE,103,0.0,0.0,96,0.00,,---,0.00,VWS V14.01,2013-05-01 02:59:00,
2013-04-30 21:04:00,26.4,25.4,29.88,NE,49,0.0,0.0,96,0.00,,---,0.00,VWS V14.01,2013-05-01 03:04:00,
2013-04-30 21:09:00,26.4,25.2,29.85,NE,49,0.0,0.0,95,0.00,,---,0.00,VWS V14.01,2013-05-01 03:09:00,
2013-04-30 21:14:00,26.2,25.0,29.85,NE,49,0.0,0.0,95,0.00,,---,0.00,VWS V14.01,2013-05-01 03:14:00,
2013-04-30 21:19:00,26.2,25.0,29.85,NE,49,0.0,0.0,95,0.00,,---,0.00,VWS V14.01,2013-05-01 03:19:00,
2013-04-30 21:24:00,26.4,25.2,29.88,NE,49,0.0,0.0,95,0.00,,---,0.00,VWS V14.01,2013-05-01 03:24:00,
2013-04-30 21:29:00,26.6,25.4,29.88,NE,49,0.0,0.0,95,0.00,,---,0.00,VWS V14.01,2013-05-01 03:29:00,
2013-04-30 21:34:00,26.6,25.4,29.88,NE,49,0.0,0.0,95,0.00,,---,0.00,VWS V14.01,2013-05-01 03:34:00,
2013-04-30 21:39:00,26.4,25.2,29.88,NE,49,0.0,0.0,95,0.00,,---,0.00,VWS V14.01,2013-05-01 03:39:00,
2013-04-30 21:44:00,26.4,25.2,29.88,NE,41,0.0,0.0,95,0.00,,---,0.00,VWS V14.01,2013-05-01 03:44:00,
2013-04-30 21:49:00,26.6,25.4,29.88,North,1,0.0,0.0,95,0.00,,---,0.00,VWS V14.01,2013-05-01 03:49:00,
2013-04-30 21:54:00,26.6,25.4,29.91,NW,326,3.1,3.1,95,0.00,,---,0.00,VWS V14.01,2013-05-01 03:54:00,
2013-04-30 21:59:00,26.4,25.2,29.91,NE,39,0.0,4.0,95,0.00,,---,0.00,VWS V14.01,2013-05-01 03:59:00,
2013-04-30 22:01:00,26.2,24.8,29.91,North,353,0.0,0.0,94,0.00,,---,0.00,VWS V14.01,2013-05-01 04:01:00,
2013-04-30 22:06:00,26.2,24.8,29.91,NNW,338,0.0,0.0,94,0.00,,---,0.00,VWS V14.01,2013-05-01 04:06:00,
2013-04-30 22:11:00,26.1,24.3,29.91,NW,314,0.0,0.0,93,0.00,,---,0.00,VWS V14.01,2013-05-01 04:11:00,
2013-04-30 22:16:00,26.1,24.1,29.91,NNW,344,0.0,0.0,92,0.00,,---,0.00,VWS V14.01,2013-05-01 04:16:00,
2013-04-30 22:21:00,26.1,23.8,29.91,NNE,21,0.0,0.0,91,0.00,,---,0.00,VWS V14.01,2013-05-01 04:21:00,
2013-04-30 22:26:00,25.9,23.6,29.91,North,10,0.0,0.0,91,0.00,,---,0.00,VWS V14.01,2013-05-01 04:26:00,
2013-04-30 22:31:00,25.9,23.4,29.91,NNW,335,5.8,5.8,90,0.00,,---,0.00,VWS V14.01,2013-05-01 04:31:00,
2013-04-30 22:36:00,25.9,23.4,29.91,North,0,3.6,3.6,90,0.00,,---,0.00,VWS V14.01,2013-05-01 04:36:00,
2013-04-30 22:41:00,25.9,23.1,29.91,North,349,0.0,4.0,89,0.00,,---,0.00,VWS V14.01,2013-05-01 04:41:00,
2013-04-30 22:46:00,26.1,23.0,29.91,North,357,0.0,0.0,88,0.00,,---,0.00,VWS V14.01,2013-05-01 04:46:00,
2013-04-30 22:51:00,26.1,22.7,29.91,NNW,328,0.0,0.0,87,0.00,,---,0.00,VWS V14.01,2013-05-01 04:51:00,
2013-04-30 22:56:00,26.1,22.7,29.91,NNE,13,0.0,0.0,87,0.00,,---,0.00,VWS V14.01,2013-05-01 04:56:00,
2013-04-30 23:01:00,26.1,22.5,29.91,North,353,0.0,0.0,86,0.00,,---,0.00,VWS V14.01,2013-05-01 05:01:00,
2013-04-30 23:06:00,26.1,22.2,29.91,NNW,342,0.0,2.7,85,0.00,,---,0.00,VWS V14.01,2013-05-01 05:06:00,
2013-04-30 23:11:00,26.1,21.6,29.91,NNE,28,3.6,3.6,83,0.00,,---,0.00,VWS V14.01,2013-05-01 05:11:00,
2013-04-30 23:16:00,26.1,21.0,29.91,North,9,0.0,0.0,81,0.00,,---,0.00,VWS V14.01,2013-05-01 05:16:00,
2013-04-30 23:21:00,26.1,21.0,29.91,NNE,20,0.0,0.0,81,0.00,,---,0.00,VWS V14.01,2013-05-01 05:21:00,
2013-04-30 23:26:00,25.9,20.6,29.91,NNE,27,0.0,0.0,80,0.00,,---,0.00,VWS V14.01,2013-05-01 05:26:00,
2013-04-30 23:31:00,25.9,20.6,29.91,NNE,27,0.0,0.0,80,0.00,,---,0.00,VWS V14.01,2013-05-01 05:31:00,
2013-04-30 23:36:00,26.1,20.5,29.91,NW,318,0.0,0.0,79,0.00,,---,0.00,VWS V14.01,2013-05-01 05:36:00,
2013-04-30 23:41:00,26.1,20.1,29.91,NW,318,0.0,0.0,78,0.00,,---,0.00,VWS V14.01,2013-05-01 05:41:00,
2013-04-30 23:46:00,26.1,20.1,29.91,NW,318,0.0,0.0,78,0.00,,---,0.00,VWS V14.01,2013-05-01 05:46:00,
2013-04-30 23:51:00,26.1,19.9,29.91,NW,318,0.0,0.0,77,0.00,,---,0.00,VWS V14.01,2013-05-01 05:51:00,
2013-04-30 23:56:00,25.9,19.7,29.91,NW,318,0.0,0.0,77,0.00,,---,0.00,VWS V14.01,2013-05-01 05:56:00,